Regional Weather Roundup
Issued by NWS Wakefield, VA

Home | Current Version | Previous Version | Graphics & Text | Print | Product List | Glossary On
Versions: 1 2 3 4 5 6 7 8 9 10 11 12 13 14 15 16 17 18 19 20 21 22 23 24 25 26 27 28 29 30 31 32 33 34 35 36 37 38 39 40 41 42 43 44 45 46 47 48 49 50
000
ASUS41 KAKQ 020114
RWRAKQ

REGIONAL WEATHER ROUNDUP
NATIONAL WEATHER SERVICE WAKEFIELD VA
900 PM EDT TUE SEP 01 2015

Note: "fair" indicates few or no clouds below 12,000 feet with no
significant weather and/or obstructions to visibility. * = Denotes
station may not report precipitation (e.g., rain,snow,etc.),
thunder or fog.

VAZ042-051-052>054-056-020200-
NORTHERN VIRGINIA

CITY           SKY/WX    TMP DP  RH WIND       PRES   REMARKS
WASH NATIONAL  MOCLDY    82  74  76 S5        30.04R
DULLES         MOCLDY    78  67  68 CALM      30.04R
FORT BELVOIR   PTCLDY    76  72  88 CALM      30.03R
QUANTICO       PTCLDY    80  73  79 NW6       30.04R
FREDERICKSBRG* CLEAR     80  71  72 CALM      30.03R
STAFFORD*      CLEAR     74  71  88 CALM      30.08R
WARRENTON      PTCLDY    74  69  86 CALM      30.05R
CULPEPER*      FAIR      73  70  91 CALM      30.06R
MANASSAS*      CLEAR     75  73  94 CALM      30.04R
LEESBURG*      PTCLDY    81  73  78 W5        30.06R
WINCHESTER     MOCLDY    81  68  65 S3        30.06R
FRONT ROYAL*   FAIR      79  68  69 CALM      30.06R
LURAY*         FAIR      77  64  65 SE3       30.08R
$$

VAZ048-049-060>072-079>083-020200-
CENTRAL AND SOUTH CENTRAL VIRGINIA

CITY           SKY/WX    TMP DP  RH WIND       PRES   REMARKS
RICHMOND       PTCLDY    81  70  69 CALM      30.04R
CHESTERFIELD*  FAIR      79  63  57 CALM      30.06R
PETERSBURG*    PTCLDY    73  73 100 CALM      30.06R
HANOVER        CLEAR     76  73  91 CALM      30.06R
TAPPAHANNOCK*  CLEAR     76  69  77 CALM      30.05R
QUINTON*       FAIR      75  73  92 CALM      30.04R
CHARLOTTSVILLE PTCLDY    79  69  71 CALM      30.07R
GORDONSVILLE*  FAIR      75  71  86 CALM      30.05S
ORANGE*        PTCLDY    75  72  88 CALM      30.07R
LOUISA*        PTCLDY    75  70  83 CALM      30.05R
BUMPASS*       FAIR      76  71  84 CALM      30.05R
FARMVILLE*     PTCLDY    77  67  70 CALM      30.05R
CREWE*         FAIR     N/A N/A N/A CALM      30.06R
FORT PICKETT*  FAIR      75  71  87 CALM      30.07R
CHASE CITY*    FAIR      79  74  86 CALM      30.07S
CLARKSVILLE*   FAIR      73  72  94 CALM      30.07R
SOUTH HILL*    CLEAR     74  72  94 CALM      30.13R
LAWRENCEVILLE* FAIR      73  72  94 CALM      30.07R
EMPORIA*       PTCLDY    72  72 100 CALM      30.07R FOG
$$

VAZ088>098-020200-
SOUTHEAST VIRGINIA

CITY           SKY/WX    TMP DP  RH WIND       PRES   REMARKS
NORFOLK        CLEAR     78  72  81 SE6       30.05R
VIRGINIA BEACH PTCLDY    79  71  76 CALM      30.05R
NORFOLK NAVAL  PTCLDY    76  71  85 SE3       30.06R
WEST POINT*    CLEAR     79  71  76 CALM      30.06R
SALUDA*        FAIR      75  69  81 CALM      30.04R
NEWPORT NEWS   CLEAR     75  67  76 E3        30.05R
LANGLEY AFB    CLEAR     78  72  80 SE3       30.04R
FORT EUSTIS    PTCLDY    77  75  92 CALM      30.03R
WILLIAMSBURG*  CLEAR     79  73  83 CALM      30.06R
HR EXEC AP*      N/A     70  66  88 CALM      30.07R
FRANKLIN*      CLEAR     75  73  92 CALM      30.06R
WAKEFIELD      PTCLDY    75  69  81 CALM      30.05R
$$

VAZ020-022-025-037-045-020200-
WEST CENTRAL AND SOUTHWEST VIRGINIA

CITY           SKY/WX    TMP DP  RH WIND       PRES   REMARKS
STAUNTON*      MOCLDY    78  67  68 CALM      30.13R
WAYNESBORO*    CLOUDY    77  69  77 SW3       30.12S
HOT SPRINGS VA CLOUDY    70  60  69 NW3       30.26R
LYNCHBURG      PTCLDY    77  67  71 W3        30.11R
DANVILLE       PTCLDY    75  68  78 CALM      30.08R
SOUTH BOSTON*  FAIR      78  70  76 CALM      30.07R
MARTINSVILLE   CLEAR     75  75 100 CALM      30.12R
ROANOKE        MOCLDY    82  65  56 CALM      30.13R
BLACKSBURG     PTCLDY    71  69  92 CALM      30.21R
DUBLIN*        CLOUDY    73  68  84 CALM      30.19R
MARION*        PTCLDY    71  67  87 CALM      30.23R
HILLSVILLE*    MOCLDY    75  64  68 CALM      30.21R
RICHLANDS*     CLOUDY    74  35  23 CALM      30.21S
WISE*          MOCLDY    73  61  64 CALM      30.23R
ABINGDON*      PTCLDY    74  67  80 CALM      30.17R
$$

MDZ021>025-VAZ099-100-020200-
SOUTHERN MARYLAND AND THE DELMARVA PENINSULA

CITY           SKY/WX    TMP DP  RH WIND       PRES   REMARKS
PATUXENT RIVER PTCLDY    78  68  71 S5        30.03R
BAY BRIDGE APT   N/A     81  68  65 CALM      30.03R
LEONARDTOWN    NOT AVBL
DOVER          PTCLDY    79  73  82 S2        30.02R
GEORGETOWN     PTCLDY    75  72  90 CALM      30.04R
EASTON         PTCLDY    81  73  78 CALM      30.07R
CAMBRIDGE      PTCLDY    77  68  73 SE3       30.04R
SALISBURY      PTCLDY    75  73  93 CALM      30.04R
OCEAN CITY     PTCLDY    76  71  85 CALM      30.04R
WALLOPS ISLAND PTCLDY    77  72  84 SW3       30.05R
ACCOMACK*      CLEAR     72  72 100 CALM      30.05R
$$

NCZ012>017-030>032-020200-
NORTH CENTRAL AND EASTERN NORTH CAROLINA

CITY           SKY/WX    TMP DP  RH WIND       PRES   REMARKS
ROANOKE RAPIDS FAIR      73  72  94 CALM      30.06R
RALEIGH        PTCLDY    74  69  85 E3        30.08R
ELIZABETH CITY PTCLDY    76  73  91 S5        30.05R
AHOSKIE*       CLEAR     72  71  96 CALM      30.06R
EDENTON*       PTCLDY    74  71  88 CALM      30.06R
CURRITUCK*     PTCLDY    76  72  87 CALM      30.06R
KILL DEVIL HLS PTCLDY    75  67  77 CALM      30.04S
MANTEO         PTCLDY    76  73  90 CALM      30.05S
CAPE HATTERAS  MOCLDY    76  72  87 CALM      30.06R
TARBORO*       FAIR      74  73  94 CALM      30.06S
GOLDSBORO      CLEAR     77  72  83 S2        30.05R
WASHINGTON     CLEAR     75  72  91 CALM      30.06R
GREENVILLE     CLEAR     75  73  94 CALM      30.07S
NEW BERN       CLEAR     76  73  91 CALM      30.07R
WILMINGTON     CLEAR     78  74  87 CALM      30.07R
$$

VAZ048-020200-
ELSEWHERE

CITY           SKY/WX    TMP DP  RH WIND       PRES   REMARKS
HARRISBURG PA  PTCLDY    73  67  81 CALM      30.04R
BALTIMORE      MOCLDY    80  70  71 CALM      30.03R
ANNAPOLIS      PTCLDY    80  75  84 CALM      30.03R
ANDREWS AFB    PTCLDY    78  69  73 SE2       30.04R
PHILADELPHIA   PTCLDY    80  70  71 E8        30.04R
HENDERSON NC   CLEAR     76  67  74 CALM      30.08R
GREENSBORO     PTCLDY    82  63  52 CALM      30.09R
ROCKY MOUNT    CLEAR     75  71  87 CALM      30.06R
$$

VAZ100-020200-
MARINE

STATION/POSITION TIME  TEMP    WIND        PRES    WAVE   SWELL
                       AIR SEA DIR/SP/G            HT/PER HT/PER
                 (UTC) (F)     (DEG/KT/KT) (MB)    (FT/S) (FT/S)
BRANDYWINE LGT   0000   78 77  200/  9/ 11 1016.6R
CAPE MAY NJ      0000   76 81  130/  5/  6 1016.1R
LEWES DE         0000   80 77  210/  3/  5 1016.2R
15NM E FENWICK I 0050   79 79  200/ 10/ 12 1017.0R   2/ 9   2/ 9
OCEAN-CITY-INLET 0000   78 80  240/  4/  4 1015.9R
GOOSES REEF MD   0100   82 81  180/  4/  6 1018.0R
COVE POINT MD    0000   81     200/  6/  7 1017.1R
SOLOMONS ISLAND  0000      81                N/A
BISHOPS HEAD MD  0000   80 81  180/  7/  8 1015.8R
PINEY POINT MD   0005          160/  5/  5   N/A
POTOMAC MD       0100   81 80  200/  8/  8 1016.1R   1
CAMBRIDGE MD     0000   81 81  180/  4/  6 1015.7R
LEWISETTA VA     0000   82 81  200/  5/  6 1016.2R
RAPPAHANNOCK LGT 0000          190/  5/  6 1017.6R
STINGRAY PT      0100   81 80  180/  4/  6 1017.8R   0
YORK RVR RNG VA  0000   80     230/  1/  2 1016.4R
YORKTOWN VA      0000   81 81  180/  3/  4 1016.5R
JAMESTOWN VA     0100   80 82   CALM  /  2   N/A
DOMINION TERM VA 0000   80      60/  5/  6 1016.8S
KIPTOPEKE VA     0000      81  130/  3/  5   N/A
CHES BAY BRIDGE  0000   79 80  110/  4/  6 1016.6R
CAPE HENRY VA    0000   77     150/  5/  6   N/A
CHESAPEAKE LGHT  0000   77     190/  3/  3 1017.8S
WILLOUBY STN VA  0000   79      30/  1/  2 1017.9S
CAPE HENRY BUOY  0028      82                N/A     2/ 8
1ST LANDING BUOY 0100      79              1017.2R   1/ 4
CAPE CHARLES BUO 0026      81                N/A     2/10   2/10
OFFSHORE WE BUOY 0011      81                N/A     2/10   2/10
64NM E OF VA BCH 0050   78 79   20/  2/  4 1017.2R   2/ 7   2/ 7
DUCK PIER NC     0000   78 79  120/  4/  4 1016.4S
44100 DUCK FRF   0024      79                N/A     2/ 9
44056 DUCK FRF   0011      81                N/A     1/ 9
OREGON INLET NC  0000   78 81   40/  1/  2 1017.2S
HATTERAS NC      0000   80 82   60/  1/  2 1017.2R
DIAMOND SHLS NC  0050   80 83  360/  2/  4 1017.9R   2/ 9   2/ 9
CAPE LOOKOUT NC  0100   79     260/  5/  7 1017.7R
$$



USA.gov is the U.S. government's official web portal to all federal, state and local government web resources and services.